Wetbulb
58.34 58.38 59.52 60.07 60.04 60.87 60.32 59.85 59.09 58.78 58.80 59.06 58.93 58.83 58.92 58.48 57.09 58.96 56.23 59.19 61.23 62.59 60.70 62.36 61.03 60.98 59.72 57.92 58.75 58.90 53.12 51.32 51.43 52.01 54.15 56.85 55.75 58.73 60.89 59.95 61.27 61.85 63.99 68.33 71.25
55.59 55.47 56.79 57.80 57.60 58.03 59.42 59.97 59.41 58.89 58.72 58.55 58.53 58.44 58.32 57.78 57.89 55.33 61.00 62.68 63.60 64.06 58.95 58.79 58.68 59.11 56.90 56.97 58.18 55.42 53.57 52.58 54.98 55.42 55.35 55.95 56.48 57.15 56.98 57.79 59.55 62.49 65.81 69.84 70.20
55.17 54.84 54.98 55.52 56.56 56.76 56.97 58.15 59.58 59.24 58.74 58.33 58.23 58.19 57.62 57.42 54.80 55.47 61.66 63.03 63.44 63.74 59.66 59.01 58.57 57.81 55.49 57.09 56.70 56.01 52.91 55.60 54.51 55.87 56.81 55.81 55.87 57.75 56.56 55.60 58.70 59.51 63.61 68.02 69.08
54.79 54.63 54.64 54.93 55.65 55.66 56.16 56.17 58.38 59.49 59.11 58.31 58.28 58.30 57.55 57.45 45.85 57.81 62.65 63.39 63.32 63.16 59.49 58.14 57.13 55.28 54.39 53.76 56.57 53.51 55.78 55.53 55.39 56.29 56.11 55.37 57.33 56.07 57.15 57.28 59.51 60.59 64.29 67.04 67.83
53.75 54.33 54.30 54.63 54.87 55.14 55.27 55.29 55.83 58.16 58.87 58.46 58.20 58.03 56.61 51.52 51.07 59.34 61.54 63.46 60.90 59.74 57.46 56.55 55.78 55.60 53.44 54.47 55.05 53.95 55.07 55.88 56.38 55.94 55.83 56.74 55.61 55.97 56.60 59.02 59.93 59.97 59.72 64.95 66.19
53.67 53.81 54.37 54.30 54.51 54.29 54.62 54.74 54.63 55.67 57.94 58.29 57.74 57.14 54.23 45.79 56.12 57.77 57.62 57.80 58.97 59.07 57.71 57.58 56.66 57.84 55.50 54.72 53.71 55.24 55.06 55.56 56.15 56.12 56.19 54.22 54.50 55.91 56.95 59.24 59.03 59.36 59.69 61.47 64.07
53.36 53.84 54.28 54.22 54.38 53.95 53.90 54.31 54.25 54.41 56.42 58.23 57.83 56.97 51.90 50.69 56.29 57.49 57.90 56.74 58.15 58.67 57.73 58.92 58.91 56.38 56.34 54.58 56.63 54.86 52.18 53.92 54.80 55.58 55.14 56.12 53.13 53.78 57.04 58.37 58.03 58.60 59.38 60.59 62.41
53.38 53.70 54.09 54.29 54.02 54.04 53.75 53.38 53.63 54.49 55.72 57.72 57.91 56.92 50.73 56.72 58.19 55.78 56.48 56.45 57.74 58.48 58.34 59.76 59.35 57.13 55.71 56.98 54.94 52.62 52.97 48.97 53.13 54.85 55.54 54.90 49.89 55.14 57.79 57.14 56.57 58.14 59.07 59.83 60.84
54.14 54.01 53.92 54.10 53.88 53.51 53.10 52.91 53.38 54.90 56.04 57.17 55.12 54.99 51.58 56.87 54.14 56.03 56.46 53.13 54.97 56.40 58.44 58.95 57.95 55.24 55.79 52.20 50.83 51.99 47.47 48.69 50.32 55.05 54.86 53.89 51.00 54.80 57.47 56.96 56.35 57.33 58.14 58.83 60.30
54.49 54.25 53.92 53.65 53.94 53.18 52.28 52.31 55.87 56.52 56.56 55.61 53.93 50.41 54.29 51.51 53.99 54.81 56.32 54.66 52.34 53.73 53.64 54.78 54.93 52.29 52.23 50.94 44.39 46.56 47.76 49.16 49.13 52.98 54.21 52.75 52.12 54.61 56.81 56.36 56.46 57.37 58.28 58.72 59.06
54.53 54.39 54.06 53.57 53.63 53.06 52.27 54.69 52.27 49.49 50.84 48.41 51.28 51.74 51.21 53.58 55.40 53.62 55.03 53.66 52.36 50.86 48.03 51.97 49.29 47.28 49.71 51.69 51.57 50.26 49.11 48.48 50.83 53.09 52.38 52.02 52.29 53.63 55.44 56.18 56.46 56.97 57.68 58.42 59.38
54.27 54.39 54.06 53.65 53.47 53.32 53.60 48.97 49.03 47.62 43.08 49.04 50.83 51.61 54.14 55.46 48.38 50.88 55.09 49.64 48.83 45.08 48.56 48.03 45.96 49.95 51.34 51.60 50.69 50.26 48.66 48.50 50.57 52.26 51.76 51.47 51.26 53.72 55.04 55.52 56.29 56.71 57.50 58.00 59.13
53.76 53.96 54.00 53.26 53.08 52.42 51.81 49.96 55.86 53.15 43.11 46.42 50.67 50.63 51.50 53.45 48.62 50.48 51.61 49.29 46.62 45.73 45.91 45.27 47.77 50.53 49.77 49.06 48.43 49.25 48.60 48.60 47.99 50.48 52.13 50.78 49.03 51.12 53.87 55.37 56.32 57.09 58.14 58.70 58.70
53.28 53.45 53.20 52.93 49.04 52.66 50.12 53.10 53.67 53.94 37.88 39.06 45.08 48.85 52.05 53.00 47.93 54.23 53.68 49.61 45.89 43.76 46.43 46.05 49.09 47.95 48.98 47.55 48.59 45.60 50.40 49.70 48.85 47.65 44.27 50.46 43.89 49.28 51.58 52.48 54.27 55.70 56.98 58.13 58.85
52.91 53.22 52.82 51.81 51.39 49.78 51.49 53.85 55.98 52.75 26.21 42.23 44.74 53.86 52.06 49.50 50.01 51.66 54.33 49.93 44.24 44.94 45.18 44.46 45.56 46.04 45.96 47.51 49.59 46.65 50.09 49.38 49.05 47.44 47.05 47.07 44.72 47.26 50.58 49.16 51.54 54.42 57.04 58.54 59.65
52.40 52.67 52.40 52.61 53.03 52.36 55.14 55.35 53.34 37.57 24.99 37.54 45.64 45.43 45.72 48.43 49.02 51.35 50.97 51.45 50.49 45.19 45.45 44.41 50.23 48.84 47.85 49.48 50.11 51.45 49.69 49.14 49.14 47.26 41.44 45.69 44.79 45.86 48.05 50.24 51.69 53.86 55.60 57.22 59.29
51.71 52.00 51.96 53.68 48.29 54.37 55.26 49.85 35.04 28.67 39.96 37.15 40.24 44.69 44.53 44.20 45.88 47.04 46.72 45.18 42.21 39.56 38.43 43.97 45.11 48.52 49.69 47.55 49.98 49.68 46.70 40.74 38.59 40.24 40.40 46.67 44.43 47.11 50.03 52.19 53.24 53.22 55.07 57.53 59.34
51.03 50.88 51.42 52.29 55.48 55.25 51.57 38.67 27.63 35.67 36.54 41.68 41.55 42.15 41.23 44.08 44.01 45.51 44.14 42.44 46.48 45.72 43.81 39.76 38.22 44.79 49.01 47.13 46.17 46.78 46.40 41.61 34.03 37.38 40.13 46.80 42.48 46.94 52.19 53.66 54.30 54.90 55.47 56.87 58.20
50.58 51.08 50.59 52.57 55.44 54.72 42.53 30.59 32.38 35.35 39.43 39.00 40.35 38.33 39.68 42.97 43.53 43.28 43.65 43.34 46.80 46.27 41.69 42.04 42.16 49.65 48.10 48.27 47.48 45.61 43.45 48.82 40.93 42.70 39.23 43.08 46.86 50.56 52.11 52.95 54.13 54.40 55.00 56.43 57.68
49.20 47.32 47.79 53.99 55.15 48.64 35.78 32.08 35.60 40.91 41.21 40.47 35.17 38.39 35.90 38.79 40.31 39.80 41.21 45.88 45.59 48.64 48.85 45.67 40.64 48.12 49.22 49.69 48.80 46.40 48.83 42.39 42.51 33.76 33.53 40.25 42.28 44.49 48.12 49.76 53.01 53.89 54.11 56.24 57.75
47.96 40.92 48.63 54.32 50.50 41.66 31.29 32.97 37.93 42.29 42.08 39.03 37.48 37.67 38.88 38.39 40.08 40.07 40.82 44.91 47.16 47.37 49.17 47.10 43.38 43.53 47.49 46.40 44.21 44.85 43.81 44.94 45.02 42.59 37.56 37.26 42.20 50.31 50.31 52.07 52.83 54.53 55.11 56.63 57.48
43.64 34.57 48.63 54.13 37.47 36.01 32.05 35.86 39.97 40.77 43.12 41.02 41.16 39.77 38.49 39.73 38.85 39.54 39.35 44.17 48.16 48.10 44.44 46.37 43.88 39.41 41.91 48.41 50.56 47.30 45.75 45.38 39.68 39.48 43.14 42.00 42.60 52.26 52.76 53.34 54.49 55.09 55.50 57.02 58.29
39.26 38.66 49.48 51.23 31.50 31.93 35.49 36.26 39.80 39.78 40.46 40.56 39.13 40.58 41.60 38.84 36.29 39.85 41.12 45.95 46.60 47.04 44.19 46.23 41.48 35.54 38.87 42.98 47.03 44.83 46.35 47.92 47.74 46.95 41.70 39.44 42.55 52.06 53.04 53.35 54.60 54.77 56.20 57.09 58.01
39.32 31.86 38.09 42.44 42.27 36.05 33.43 35.02 34.43 41.53 40.52 41.26 40.36 41.26 38.78 37.46 40.11 37.68 39.14 43.78 46.47 46.67 46.09 46.41 41.56 37.99 36.19 40.30 44.97 41.95 44.62 46.37 46.21 40.79 42.32 43.71 45.47 49.71 50.55 51.71 53.44 55.30 56.84 56.90 57.47
39.24 33.11 40.13 32.14 33.41 38.71 38.40 36.61 35.20 35.14 40.79 41.61 38.61 38.90 38.11 34.82 36.53 36.74 40.19 41.57 43.82 45.21 45.19 44.80 37.42 39.84 41.39 43.21 44.20 44.76 44.33 45.35 43.94 45.17 42.41 45.05 46.03 48.58 50.52 52.46 53.88 55.59 56.07 55.77 55.86
34.75 34.61 40.60 39.46 40.03 36.01 37.01 35.80 35.68 37.46 38.22 37.02 37.09 39.37 39.63 36.29 37.29 35.38 38.46 39.66 39.35 43.30 41.76 44.56 37.76 40.64 37.84 41.78 42.83 40.59 43.86 44.92 45.49 45.69 45.83 47.08 46.71 52.12 52.70 53.15 52.89 53.68 55.18 54.43 54.71
42.39 42.60 40.58 38.40 38.52 35.92 35.19 36.17 37.26 39.71 40.13 41.44 40.08 37.66 36.45 38.88 42.79 43.83 44.17 44.03 42.91 41.20 40.41 40.48 35.90 35.95 34.72 40.50 39.89 35.48 42.31 43.79 45.40 47.43 47.97 44.81 49.17 51.29 51.04 51.96 53.58 53.24 54.87 55.15 55.77
MSLP
1017.92 1017.64 1018.04 1017.39 1017.31 1017.11 1017.48 1017.23 1016.96 1017.53 1017.14 1016.80 1016.68 1016.59 1015.89 1015.48 1014.45 1012.76 1011.78 1012.14 1011.69 1011.86 1011.79 1010.09 1009.30 1008.57 1008.09 1007.01 1006.48 1005.70 1004.13 1001.46 1001.06 1001.35 1001.57 1002.99 1002.83 1003.00 1002.68 1002.56 1003.39 1003.79 1003.93 1004.38 1006.57
1017.73 1018.14 1018.32 1017.71 1017.51 1017.38 1017.50 1017.27 1016.97 1017.32 1017.02 1016.78 1016.68 1016.43 1016.08 1015.37 1014.04 1011.91 1011.73 1011.57 1011.81 1011.91 1011.13 1009.47 1008.42 1008.08 1007.26 1006.54 1005.94 1005.33 1003.29 1001.62 1001.85 1001.99 1002.35 1003.22 1003.29 1002.88 1003.32 1003.03 1003.25 1004.28 1005.16 1005.51 1006.62
1018.40 1018.48 1018.05 1018.02 1017.85 1017.46 1017.64 1017.14 1017.21 1017.07 1016.93 1016.69 1016.57 1016.35 1015.98 1015.33 1012.89 1010.47 1011.26 1011.69 1011.59 1011.48 1010.46 1009.07 1008.44 1007.95 1006.94 1006.13 1005.68 1004.82 1003.92 1002.87 1003.17 1003.26 1003.43 1003.11 1003.33 1003.39 1002.83 1002.26 1002.69 1003.26 1004.47 1005.59 1006.32
1018.51 1018.22 1018.26 1018.11 1018.11 1017.45 1017.51 1017.70 1017.42 1016.88 1016.75 1016.81 1016.21 1016.62 1015.74 1014.81 1011.54 1010.83 1011.35 1011.42 1011.41 1010.55 1009.83 1008.91 1008.37 1007.56 1006.79 1005.73 1005.36 1004.98 1004.39 1004.00 1003.51 1003.77 1004.00 1003.53 1003.19 1003.22 1002.73 1002.14 1002.13 1002.57 1003.19 1004.98 1005.75
1018.58 1018.51 1018.41 1018.09 1018.06 1017.76 1017.92 1017.86 1017.57 1016.96 1016.88 1016.75 1016.47 1016.57 1015.34 1013.36 1010.76 1010.73 1011.31 1010.97 1010.47 1010.18 1009.34 1008.47 1007.98 1007.22 1006.42 1005.53 1005.24 1004.99 1004.52 1004.23 1004.15 1004.26 1004.35 1004.03 1003.44 1003.38 1002.72 1002.65 1002.72 1003.38 1004.17 1004.50 1005.05
1018.59 1018.44 1018.36 1018.53 1018.21 1017.78 1017.97 1017.83 1017.51 1017.14 1017.05 1016.78 1016.59 1016.61 1015.13 1012.50 1010.63 1010.52 1010.92 1010.57 1009.87 1009.68 1009.05 1008.53 1007.67 1007.10 1006.56 1006.06 1005.46 1004.69 1004.71 1004.27 1004.24 1004.03 1004.01 1004.05 1003.51 1003.28 1002.67 1002.73 1002.71 1003.36 1003.91 1004.11 1004.34
1018.42 1018.37 1018.37 1018.49 1018.40 1018.06 1017.88 1017.47 1017.39 1017.05 1017.16 1017.04 1016.61 1016.13 1014.31 1011.64 1010.71 1010.70 1010.99 1010.60 1010.44 1009.87 1009.13 1008.62 1008.28 1007.96 1006.87 1006.23 1005.78 1005.42 1005.00 1004.33 1004.02 1003.85 1003.49 1003.45 1002.91 1002.20 1001.95 1001.97 1002.23 1002.74 1003.26 1003.44 1003.68
1018.30 1018.41 1018.54 1018.34 1018.39 1018.09 1017.68 1017.51 1017.34 1017.35 1016.86 1017.00 1016.75 1015.58 1012.76 1011.13 1010.97 1010.84 1010.72 1010.48 1010.42 1010.14 1009.95 1009.41 1009.19 1008.39 1007.29 1006.50 1006.05 1005.36 1004.75 1003.47 1002.63 1002.59 1003.08 1003.56 1001.33 1000.09 1000.67 1001.40 1001.69 1002.13 1002.32 1002.54 1002.94
1018.35 1018.50 1018.54 1018.52 1018.46 1018.18 1017.88 1017.67 1017.19 1017.04 1016.94 1017.02 1016.56 1015.43 1011.79 1011.49 1011.03 1010.51 1010.26 1010.01 1009.66 1009.62 1009.62 1009.48 1009.30 1008.24 1007.00 1006.61 1005.48 1004.42 1003.19 1002.22 1001.82 1001.92 1002.25 1002.80 1001.45 1000.26 1000.58 1001.13 1001.16 1001.35 1001.66 1001.71 1001.97
1018.24 1018.60 1018.50 1018.45 1018.56 1018.35 1017.75 1017.21 1016.76 1016.68 1017.01 1016.91 1016.22 1015.11 1012.00 1010.37 1009.74 1009.68 1009.43 1009.89 1009.09 1008.99 1009.03 1009.06 1008.54 1007.41 1006.25 1005.37 1003.82 1003.03 1002.32 1002.03 1001.45 1000.91 1001.77 1001.60 1001.55 1000.86 1000.76 1001.19 1001.13 1001.15 1001.14 1001.04 1001.03
1018.35 1018.35 1018.56 1018.65 1018.36 1018.20 1017.39 1016.13 1016.99 1016.90 1016.69 1015.31 1014.08 1012.50 1010.73 1010.87 1010.49 1009.46 1008.94 1009.28 1009.07 1008.46 1007.53 1007.73 1007.37 1005.06 1004.49 1004.27 1003.99 1002.92 1001.84 1000.89 1000.55 1000.86 1000.64 1001.02 1001.14 1000.64 1000.32 1000.12 1000.44 1000.68 1000.65 1000.57 1000.72
1018.31 1018.21 1018.47 1018.40 1018.17 1018.18 1017.09 1015.52 1016.99 1017.91 1016.39 1015.02 1014.05 1013.06 1011.75 1011.34 1010.51 1009.17 1009.04 1009.06 1008.44 1006.74 1007.18 1006.73 1004.67 1004.10 1004.40 1003.76 1003.41 1002.96 1002.16 1001.14 1001.09 1001.24 1000.90 1000.90 1000.33 1000.26 999.99 999.93 999.94 999.61 999.83 1000.00 1000.09
1017.78 1018.04 1018.22 1018.26 1018.24 1017.92 1016.47 1015.97 1016.45 1016.87 1015.69 1012.62 1012.00 1011.81 1012.07 1011.64 1010.25 1008.69 1008.88 1008.35 1007.26 1006.87 1005.85 1004.57 1002.41 1004.03 1003.85 1003.07 1002.85 1002.35 1001.81 1001.72 1001.27 1001.37 1000.81 1000.67 999.36 999.72 999.73 999.59 999.28 999.06 999.00 999.31 999.26
1017.69 1017.87 1018.07 1018.23 1018.76 1016.87 1016.10 1015.92 1015.97 1016.16 1014.19 1010.52 1010.01 1009.01 1009.84 1010.55 1009.10 1008.96 1008.06 1008.07 1007.54 1006.02 1005.32 1004.32 1003.38 1002.41 1002.56 1002.39 1002.25 1001.50 1002.04 1002.16 1001.86 1001.57 999.94 1000.86 997.21 997.84 997.88 997.51 997.62 997.64 997.95 998.23 998.43
1017.37 1017.48 1017.69 1018.12 1016.86 1016.25 1015.81 1015.62 1015.93 1015.94 1013.14 1008.28 1007.44 1007.03 1007.56 1008.09 1006.55 1007.06 1007.68 1007.54 1006.79 1005.96 1005.82 1003.93 1003.23 1002.41 1001.62 1000.80 1001.80 1000.62 1002.39 1002.11 1001.87 1001.42 1001.14 999.72 999.28 997.15 997.15 996.52 996.74 996.75 997.01 997.64 997.77
1016.92 1017.15 1017.48 1017.80 1017.21 1016.15 1015.98 1016.02 1016.12 1014.96 1011.21 1007.54 1006.69 1006.82 1007.42 1006.95 1007.05 1006.87 1007.48 1007.46 1006.75 1006.63 1005.36 1004.70 1003.22 1001.91 1001.36 1001.42 1001.35 1001.87 1002.43 1002.48 1001.99 1001.65 1000.73 997.86 998.94 994.03 995.44 994.83 995.22 995.86 995.93 996.20 996.79
1016.58 1016.85 1017.28 1016.53 1016.51 1016.35 1016.49 1016.15 1015.61 1013.10 1009.14 1006.64 1005.96 1006.30 1006.59 1006.37 1006.62 1007.29 1006.36 1006.49 1006.21 1005.65 1004.91 1004.08 1002.83 1002.26 1001.50 1001.05 1000.86 1001.33 1002.08 1001.62 1001.59 1000.71 998.31 998.38 997.67 992.63 993.97 993.96 994.04 994.21 994.98 995.79 995.85
1016.14 1016.52 1016.42 1016.15 1016.38 1016.57 1016.68 1016.36 1014.03 1009.54 1007.89 1005.57 1005.44 1005.05 1005.41 1005.76 1005.59 1005.90 1006.03 1005.16 1005.04 1004.59 1003.06 1002.92 1001.82 1001.80 1000.49 999.61 999.90 999.90 1000.91 1000.83 999.96 999.25 998.40 996.91 995.63 989.89 993.53 993.12 992.95 993.97 994.94 995.41 995.49
1015.82 1015.76 1015.46 1015.42 1016.17 1016.68 1016.85 1015.05 1010.31 1009.01 1007.63 1006.78 1005.97 1005.36 1004.81 1004.73 1005.06 1005.09 1004.60 1004.35 1003.70 1003.83 1002.73 1001.23 999.37 999.95 1000.27 999.64 1000.25 999.74 999.41 999.55 1000.52 1000.08 999.11 996.11 994.21 992.05 992.57 992.40 993.15 994.03 994.79 995.04 995.44
1015.14 1014.84 1014.40 1014.58 1015.72 1016.53 1015.91 1011.51 1009.92 1008.78 1007.56 1006.78 1005.80 1005.44 1004.44 1004.22 1004.13 1004.47 1004.52 1003.49 1002.53 1002.40 1002.58 1001.39 999.99 998.76 998.63 999.14 998.86 999.26 1000.42 1000.36 1000.55 1000.44 998.54 995.67 993.31 990.42 991.90 991.56 992.05 993.09 993.76 994.36 994.81
1014.77 1014.07 1013.12 1013.92 1015.55 1015.27 1012.30 1010.71 1010.21 1009.14 1008.13 1007.07 1005.90 1005.47 1004.83 1004.26 1003.53 1003.02 1003.47 1002.97 1002.13 1001.99 1001.76 1001.76 1001.46 999.59 999.09 997.25 997.57 998.80 999.39 999.50 1000.13 1000.16 998.40 996.05 991.80 991.29 990.66 990.58 990.47 991.98 993.16 993.90 994.43
1013.95 1013.19 1012.86 1013.31 1014.09 1012.90 1011.49 1011.21 1010.55 1008.69 1008.43 1007.29 1006.65 1005.84 1005.23 1004.56 1003.74 1002.93 1002.92 1003.20 1002.00 1001.47 1001.14 1001.79 1001.00 1000.23 998.84 998.30 997.29 997.51 998.00 998.91 998.41 998.63 997.14 996.65 992.53 991.39 990.77 990.54 990.95 991.89 992.63 993.62 994.44
1012.89 1012.61 1012.27 1012.46 1011.65 1011.61 1011.75 1010.95 1010.29 1008.82 1007.60 1006.72 1006.49 1006.24 1005.61 1005.06 1004.60 1003.83 1003.28 1002.67 1002.71 1001.96 1001.87 1001.78 1000.80 1000.89 999.25 998.98 998.04 997.37 997.65 997.28 997.20 998.00 996.85 995.91 992.37 992.36 991.01 990.83 991.08 991.88 992.81 994.09 994.49
1012.50 1011.94 1011.76 1011.52 1010.76 1010.88 1010.78 1009.87 1009.34 1008.73 1007.21 1006.54 1006.10 1006.24 1006.15 1005.58 1005.37 1004.38 1003.59 1003.25 1003.44 1002.94 1003.19 1003.01 1001.85 1000.78 999.51 998.10 997.66 997.73 997.26 996.81 996.84 996.35 995.76 994.09 991.83 991.54 991.45 991.69 991.81 992.70 993.57 994.67 995.00
1011.15 1010.22 1009.42 1009.47 1009.33 1009.47 1009.47 1008.78 1007.82 1007.15 1006.79 1006.79 1005.93 1005.72 1005.31 1005.19 1004.83 1004.06 1003.74 1003.30 1003.70 1003.87 1004.17 1004.30 1002.53 1002.19 1000.55 999.27 997.84 996.36 996.35 996.14 995.45 995.15 994.36 992.91 991.39 990.73 991.42 991.40 992.09 992.87 993.64 994.35 995.03
1009.81 1009.52 1008.83 1007.78 1008.12 1008.74 1007.80 1006.58 1006.52 1005.67 1005.31 1004.45 1004.65 1004.56 1005.00 1005.03 1004.92 1004.39 1003.80 1003.21 1003.13 1003.16 1003.15 1003.29 1002.13 1002.70 1001.46 999.65 997.81 996.57 995.71 994.89 994.67 994.02 993.53 991.96 990.96 990.43 992.00 991.70 991.36 991.45 992.29 993.62 994.48
1009.00 1008.97 1008.43 1006.77 1006.69 1006.47 1005.42 1004.90 1004.19 1004.21 1004.07 1003.59 1003.84 1004.50 1004.64 1004.59 1003.38 1003.16 1003.38 1003.33 1003.64 1003.97 1004.50 1004.69 1004.65 1003.62 1000.79 999.69 997.87 995.41 995.02 994.44 994.14 993.51 992.93 991.18 988.09 991.97 991.00 991.03 990.86 991.10 991.24 992.30 993.61
Wind_Speed
9 11 12 8 5 5 6 5 5 8 7 7 9 11 12 14 18 16 13 6 7 8 8 12 9 10 9 13 8 10 10 11 7 5 9 5 9 9 1 2 8 8 9 15 19
11 10 9 12 11 9 7 7 5 7 7 7 8 10 14 14 17 15 6 9 8 6 10 11 10 8 11 8 5 10 10 7 9 1 3 1 8 8 8 11 10 7 4 16 18
8 8 10 10 10 11 13 10 8 7 7 6 7 10 13 16 13 8 10 9 10 11 16 9 10 9 13 9 10 10 15 9 2 4 4 5 7 9 11 14 13 15 14 15 15
6 7 7 8 10 10 10 13 11 7 6 7 6 11 12 11 6 8 4 4 4 12 13 11 12 13 13 13 14 12 13 10 6 5 8 10 12 7 16 14 4 5 18 16 17
4 4 5 7 7 10 9 9 12 11 8 7 5 10 9 9 14 12 5 7 8 8 14 14 14 13 17 10 12 13 15 8 10 6 10 12 11 14 14 11 4 6 4 14 16
3 5 5 5 6 8 9 9 10 11 11 7 5 8 9 14 6 3 5 7 7 7 11 12 11 11 12 15 13 8 8 13 11 14 13 14 17 17 19 15 13 10 12 14 16
4 4 4 5 6 7 7 9 10 11 11 9 5 9 12 19 0 4 4 5 5 7 11 11 12 9 6 14 14 13 14 15 16 15 14 11 19 21 21 17 20 16 17 16 17
5 5 5 5 6 8 10 11 11 11 9 8 7 11 11 3 10 17 15 13 10 9 9 7 9 14 18 14 10 14 18 17 18 22 19 14 21 17 19 18 19 19 18 18 19
6 6 5 5 6 7 10 12 11 11 7 5 6 12 13 5 12 17 14 18 14 13 12 7 10 16 12 16 16 19 16 21 20 10 12 15 21 17 6 8 13 15 18 21 19
7 7 5 4 5 8 11 12 5 4 4 2 6 4 11 6 5 8 13 19 16 12 15 16 10 14 17 16 18 21 21 22 20 13 17 18 21 23 12 10 13 13 15 18 21
8 7 7 5 4 7 12 4 3 4 5 7 3 15 6 5 8 10 10 13 19 18 24 20 17 25 25 23 25 24 25 24 18 18 22 18 20 21 18 15 17 16 16 16 17
10 8 8 4 4 8 8 6 5 2 8 12 19 16 20 13 8 13 9 14 20 28 23 22 29 29 24 24 25 26 27 26 22 19 19 18 22 19 19 19 21 21 19 19 18
8 8 8 6 4 6 6 3 10 6 6 10 18 19 17 10 13 14 16 11 20 25 29 30 35 26 25 26 27 27 28 22 25 20 24 22 29 24 21 22 22 25 21 21 21
8 9 8 6 4 4 6 4 5 5 7 8 13 12 25 13 17 23 18 12 9 25 28 31 33 31 26 32 28 29 25 23 26 21 23 18 24 25 23 25 28 27 26 21 25
8 9 10 15 4 9 6 6 4 6 7 3 17 3 14 24 0 23 29 19 20 24 19 26 33 29 31 29 26 30 21 25 25 23 21 29 21 16 22 24 23 23 20 23 21
10 9 9 9 9 3 4 5 6 4 12 7 5 9 14 24 25 20 20 23 17 22 22 19 30 30 28 31 26 23 23 17 19 16 19 29 20 27 22 26 23 24 24 22 20
12 11 11 9 9 9 6 6 3 9 2 10 13 12 14 17 20 22 21 27 23 23 22 29 33 33 26 26 26 25 22 16 17 18 22 21 20 36 3 11 17 18 17 18 18
12 11 13 11 10 11 8 4 13 11 24 9 4 14 16 16 18 17 25 22 31 32 19 26 26 35 29 37 28 29 27 14 23 20 21 25 26 34 25 24 20 13 7 12 18
11 11 12 13 11 9 8 13 14 17 14 21 22 20 18 20 19 16 22 27 28 31 34 24 37 24 33 32 27 25 29 32 21 17 13 18 24 29 23 20 12 14 15 17 20
10 9 13 16 15 9 9 31 18 22 17 15 21 21 22 25 19 21 15 16 31 31 30 32 28 27 33 33 32 28 18 23 13 20 28 28 30 26 21 28 21 19 20 16 19
9 5 7 14 12 9 19 20 29 22 23 26 23 20 21 24 24 25 20 21 19 28 28 29 27 29 28 28 30 21 26 25 21 18 18 22 21 25 27 26 21 20 17 15 16
4 7 9 16 12 8 19 17 16 24 27 27 25 26 24 26 27 25 22 29 20 23 25 26 19 23 37 32 24 32 27 30 14 30 24 19 26 20 19 10 6 12 14 13 15
4 3 10 16 16 12 7 19 31 24 31 28 30 27 28 27 25 24 25 24 23 27 18 16 16 20 31 24 28 25 27 33 26 19 25 18 28 13 21 20 11 12 12 8 10
3 6 5 12 12 20 14 20 30 29 35 27 27 25 24 26 25 28 28 26 25 25 16 20 21 17 23 27 23 29 32 31 28 21 24 25 39 30 13 5 7 5 7 10 11
5 5 8 9 11 24 28 19 30 33 35 30 30 27 28 28 28 25 27 28 25 23 18 13 23 27 28 32 33 31 40 35 33 30 28 33 39 27 22 15 14 15 14 14 14
8 6 7 16 20 23 28 31 35 34 35 37 34 35 31 28 25 26 33 27 22 16 21 14 14 21 30 33 34 34 35 30 30 28 36 39 36 28 25 25 27 22 22 18 17
7 3 8 14 23 20 23 33 38 35 33 32 30 27 26 29 35 31 23 24 19 19 18 21 11 8 16 32 35 32 30 33 34 38 34 36 43 13 22 27 28 25 16 18 19
Wind_Direction
45 38 18 16 344 313 297 302 318 299 303 315 319 317 316 312 302 285 261 7 334 339 315 262 234 237 244 259 251 261 257 252 225 248 120 147 214 196 296 253 190 174 36 98 141
44 27 19 19 32 26 333 309 309 297 304 310 314 318 313 314 300 277 27 2 330 279 247 232 225 228 241 251 241 254 261 332 16 341 102 167 255 181 201 227 180 156 128 126 153
40 27 27 14 2 23 4 340 294 299 302 306 313 314 307 309 283 88 29 341 299 218 245 259 263 260 254 236 230 244 261 26 223 292 268 227 236 226 236 218 220 193 166 159 171
24 24 22 25 7 19 13 359 327 296 299 293 319 305 307 287 272 79 360 306 290 225 232 230 233 231 248 234 225 243 248 289 284 190 250 245 251 246 247 256 351 211 151 172 188
5 1 8 17 16 10 2 354 354 333 301 290 300 304 296 244 257 120 296 206 235 235 232 225 231 233 252 248 257 235 265 252 263 224 245 261 257 253 259 244 247 237 242 184 201
340 350 350 353 3 10 354 346 347 349 314 288 277 295 259 255 12 317 304 288 272 245 238 247 241 259 281 276 254 293 274 264 251 249 230 245 252 242 243 248 237 233 215 220 218
310 326 334 338 346 346 343 340 337 332 326 280 262 263 262 245 352 292 225 270 298 290 267 241 266 243 222 258 258 256 261 250 236 246 245 241 246 241 246 225 233 224 219 223 219
290 301 318 327 332 337 332 323 321 313 318 272 253 262 259 270 262 255 252 257 242 253 260 296 269 259 256 271 263 251 247 254 247 220 221 247 259 256 212 210 234 227 234 226 224
261 275 297 311 317 325 312 304 295 291 294 213 237 237 260 69 235 241 238 240 238 228 230 246 248 241 231 239 246 232 252 246 245 196 224 212 250 262 135 229 244 239 236 239 229
268 267 279 300 308 312 302 290 322 126 150 209 296 234 236 233 244 236 228 230 221 219 220 216 226 234 221 227 235 237 238 240 258 237 214 219 236 269 184 229 241 245 247 248 236
250 257 266 285 319 299 301 195 200 175 204 221 213 230 94 1 262 228 217 211 222 222 219 198 221 230 225 221 250 259 260 259 249 249 236 229 245 259 249 226 226 238 252 242 250
234 226 243 265 285 285 283 297 107 91 292 245 260 272 279 295 289 223 169 203 198 218 214 220 224 231 235 243 242 246 256 257 267 270 276 247 257 260 254 249 258 257 235 247 239
240 231 213 219 232 261 270 312 174 179 260 251 221 233 238 230 241 248 194 213 213 222 221 224 230 226 238 237 238 245 243 255 258 260 263 261 262 257 249 260 255 256 246 249 247
238 230 209 166 214 223 240 213 215 219 278 262 200 245 211 221 256 227 211 215 235 226 226 235 238 242 220 234 240 241 242 250 260 259 260 258 268 246 243 235 237 235 241 242 242
239 228 200 204 126 209 84 148 163 233 287 119 195 167 187 205 81 193 213 211 232 214 227 238 239 235 247 237 230 248 246 253 252 253 263 259 260 258 251 255 248 257 220 230 244
241 233 204 212 244 234 179 140 208 193 239 245 195 196 228 212 241 271 194 225 230 240 245 248 255 241 237 249 239 247 246 245 258 243 247 252 256 272 259 253 232 236 247 243 227
233 223 218 206 208 216 165 195 169 219 151 230 221 210 220 235 224 238 232 204 219 214 223 233 238 245 248 249 242 215 229 235 230 232 241 250 243 255 262 253 259 248 213 242 232
236 218 224 227 232 175 193 189 224 211 221 249 265 232 231 231 237 232 233 233 210 232 227 224 232 222 226 233 232 222 219 220 223 231 249 247 235 252 253 264 256 223 261 244 253
234 229 227 208 196 184 167 215 220 220 236 243 258 259 261 221 246 211 238 234 232 212 237 235 233 224 222 237 221 236 220 226 246 279 273 264 258 264 252 224 214 217 237 230 242
230 230 224 208 187 193 202 225 226 231 249 258 251 255 254 251 234 244 229 249 237 232 221 249 265 242 228 218 236 219 236 228 221 241 249 258 256 258 239 245 211 210 228 230 236
226 228 200 196 173 209 223 224 224 238 252 247 253 247 258 263 260 233 212 243 246 234 237 238 245 261 271 240 212 210 225 238 233 217 239 248 259 259 250 250 244 204 220 226 235
225 222 195 165 201 206 224 219 231 236 240 253 255 257 254 258 259 265 244 261 249 233 236 237 249 243 247 257 257 219 218 231 214 218 227 254 275 262 287 275 209 217 218 214 231
224 197 206 181 215 214 220 236 233 238 242 235 242 247 247 257 268 266 269 272 279 283 259 264 235 242 258 243 254 250 232 227 229 227 227 230 252 245 249 269 247 228 200 216 214
194 197 198 205 218 220 217 223 230 235 249 246 248 239 251 252 250 258 259 255 260 262 319 310 270 248 244 238 235 231 239 238 230 228 234 233 251 240 255 274 251 203 240 216 203
198 221 189 201 215 218 220 236 232 232 234 239 247 238 233 241 250 253 252 256 260 265 262 292 263 260 262 256 248 241 226 231 237 224 236 237 244 245 246 245 217 207 196 191 196
216 190 222 231 206 215 230 228 230 237 232 229 235 235 236 240 240 244 253 257 262 266 265 269 260 261 252 256 248 244 251 247 235 242 240 245 245 248 260 269 270 251 199 204 194
208 192 263 227 235 223 215 224 232 236 239 237 230 239 235 238 239 251 261 267 274 277 279 292 264 269 244 241 247 244 240 243 238 238 240 244 246 260 255 247 261 272 244 202 213